Вернуться в каталог

SL-14 R/B

АктивенPO
NORAD 20827·ROCKET BODY·🇷🇺 Russia

Запущен Sep 28, 1990 с Plesetsk Cosmodrome

Loading…

Ближайшие Пролёты (ближайшие 24 часа)

TLE

СвежийSource: Space-Track

Эпоха: Sep 14, 2026, 09:15 UTC

1 20827U 90086B   26257.38609263  .00000047  00000-0  26735-4 0  9999
2 20827  82.5286 131.3469 0104716  83.2794 278.0271 13.84653738816641

Отслеживайте SL-14 R/B в реальном времени с AllMySat

Download on the App Store